Content
SEND FEEDBACK

Daily
Averages
Monthly
Summary
United States of America

EMPORIA, KANSAS


Home > North America > United States > Kansas
Elevation: 1204 feet     Latitude: 38 19N     Longitude: 096 11W

WEATHER
 
SELECT A DAY
Number of Records: 197,418;   Date Range: 1/1/95 - 8/12/14
 
SHARE

PRINT THIS DATA

[ ← Previous Day ]
WEATHER ALMANAC - APRIL 30, 2013
[ Next Day → ]
[ °C ]   °F
Weather ElementAverageHighLow
Temperature72.7 °F82.9 °F (2:53 pm)64 °F (6:53 am)
Dewpoint54.1 °F57.9 °F (3:53 pm)51.1 °F (9:53 am)
Humidity53.2 %70 % (6:53 am)41 % (2:53 pm)
Barometer29.70 in29.79 in (10:53 pm)29.64 in (1:53 am)
Wind Speed20.5 mph28.8 mph (8:53 am)
Wind Gust36.8 mph (8:53 am)
Weather ElementAverage
Visibility10 mi
Wind DirectionSSE (172.2 °)

Weather ElementTotal
Precipitation---
Cooling Degree Days8.5 (Base 65)
Growing Degree Days23.5 (Base 50)
Averaged from 23 records on April 30, 2013
WEATHER CONDITIONS BREAKOUT
WIND DIRECTION BREAKOUT
WEATHER BY HOUR - APRIL 30, 2013
[ °C ]   °F
Local TimeTemperatureDewpointHumidityBarometerVisibilityWind DirectionWind SpeedGust SpeedPrecipitationEventsConditions
1:53 AM68.0 °F53.1 °F59 %29.64 in10.0 miSouth (190°)21.9 mph28.8 mphClear
2:53 AM66.9 °F53.1 °F61 %29.64 in10.0 miSouth (190°)24.2 mph29.9 mphClear
3:53 AM66.0 °F52.0 °F60 %29.65 in10.0 miSouth (190°)24.2 mph33.4 mphClear
4:53 AM64.9 °F53.1 °F65 %29.67 in10.0 miSouth (190°)23.0 mph35.7 mphClear
5:53 AM64.9 °F54.0 °F68 %29.68 in10.0 miSouth (190°)19.6 mphClear
6:53 AM64.0 °F54.0 °F70 %29.70 in10.0 miSouth (180°)21.9 mph27.6 mphClear
7:53 AM66.0 °F55.0 °F68 %29.70 in10.0 miSouth (180°)24.2 mph31.1 mphClear
8:53 AM70.0 °F55.0 °F59 %29.70 in10.0 miSouth (190°)28.8 mph36.8 mphClear
9:53 AM73.9 °F51.1 °F45 %29.69 in10.0 miSouth (190°)25.3 mph35.7 mphClear
10:53 AM77.0 °F55.9 °F48 %29.69 in10.0 miSouth (170°)24.2 mph34.5 mphClear
11:53 AM79.0 °F55.0 °F44 %29.69 in10.0 miSouth (180°)25.3 mph36.8 mphClear
12:53 PM81.0 °F57.0 °F44 %29.68 in10.0 miSouth (190°)28.8 mph35.7 mphClear
1:53 PM82.0 °F57.0 °F42 %29.68 in10.0 miSouth (170°)23.0 mph32.2 mphClear
2:53 PM82.9 °F57.0 °F41 %29.68 in10.0 miSouth (180°)26.5 mph33.4 mphClear
3:53 PM82.9 °F57.9 °F42 %29.68 in10.0 miSouth (180°)23.0 mph32.2 mphClear
4:53 PM82.0 °F55.9 °F41 %29.68 in10.0 miSouth (170°)19.6 mph27.6 mphClear
5:53 PM81.0 °F55.9 °F42 %29.69 in10.0 miSSE (160°)18.4 mph26.5 mphClear
6:53 PM78.1 °F55.0 °F45 %29.70 in10.0 miSSE (150°)19.6 mph25.3 mphClear
7:53 PM75.0 °F52.0 °F44 %29.72 in10.0 miSSE (150°)15.0 mphClear
8:53 PM71.1 °F51.1 °F49 %29.74 in10.0 miSE (140°)11.5 mphClear
9:53 PM66.9 °F51.1 °F57 %29.77 in10.0 miSE (130°)8.1 mphClear
10:53 PM64.0 °F52.0 °F65 %29.79 in10.0 miSSE (150°)8.1 mphClear
11:53 PM64.0 °F52.0 °F65 %29.78 in10.0 miSSE (150°)8.1 mphClear
Hourly data recorded from KEMP, located miles away from Emporia, Kansas







STORIES FROM OUR PARTNERS